Date String (YYYY-MM-DD hh:mm:ss) UTC,Instrument flags,Ambient pressure (hPa),Sample flow (lpm),Bypass flow (lpm),Sample temperature (°C),Ambient temperature (°C),ASC tube jacket temperature (°C),LED temperature (°C),Box temperature (°C),Sample RH (%),Span deviation,Mass concentration (μg/m³),Mass concentration (μg/m³),Mass concentration (μg/m³)
DateTimeUTC,F1_M11,P_M11,Q1_M11,Q2_M11,T1_M11,T2_M11,T3_M11,T4_M11,T5_M11,U1_M11,ZSPAN_M11,X0_M11,X2_M11,X1_M11
2022-02-09 11:00:00,,0827.7,4.99,0.00,22.7,21.9,00.0,31.7,24.5,06.5,0000.0,0003.44,0001.94,0001.48
2022-02-09 11:01:00,,0827.7,5.00,0.00,22.7,21.9,00.0,31.7,24.5,06.7,0000.0,0003.53,0001.96,0001.51
2022-02-09 11:02:00,,0827.5,5.00,0.00,22.7,21.9,00.0,31.7,24.5,06.5,0000.0,0003.63,0002.02,0001.53
2022-02-09 11:03:00,,0827.3,4.99,0.00,22.7,21.9,00.0,31.7,24.5,06.4,0000.0,0003.59,0002.05,0001.54
2022-02-09 11:04:00,,0827.2,5.01,0.00,22.7,21.9,00.0,31.7,24.5,06.5,0000.0,0003.58,0002.06,0001.53
2022-02-09 11:05:00,,0827.3,4.99,0.00,22.7,21.9,00.0,31.7,24.4,06.5,0000.0,0003.56,0002.04,0001.51
2022-02-09 11:06:00,,0827.3,5.01,0.00,22.7,21.9,00.0,31.6,24.4,06.4,0000.0,0003.60,0002.04,0001.49
2022-02-09 11:07:00,,0827.4,4.99,0.00,22.7,21.9,00.0,31.6,24.4,06.4,0000.0,0003.48,0002.02,0001.48
2022-02-09 11:08:00,,0827.4,5.01,0.00,22.7,21.9,00.0,31.6,24.4,06.5,0000.0,0003.50,0002.03,0001.46
2022-02-09 11:09:00,,0827.4,4.99,0.00,22.7,21.9,00.0,31.6,24.4,06.5,0000.0,0003.63,0002.09,0001.44
2022-02-09 11:10:00,,0827.4,5.01,0.00,22.7,21.9,00.0,31.6,24.4,06.3,0000.0,0003.60,0002.07,0001.43
2022-02-09 11:11:00,,0827.4,4.99,0.00,22.6,21.9,00.0,31.6,24.4,06.2,0000.0,0003.72,0002.09,0001.41
2022-02-09 11:12:00,,0827.4,5.01,0.00,22.6,21.9,00.0,31.6,24.4,06.2,0000.0,0005.25,0002.13,0001.40
2022-02-09 11:13:00,,0827.4,4.99,0.00,22.6,21.9,00.0,31.6,24.5,06.3,0000.0,0005.12,0002.09,0001.40
2022-02-09 11:14:00,,0827.4,4.99,0.00,22.6,21.9,00.0,31.6,24.4,06.1,0000.0,0005.26,0002.08,0001.39
2022-02-09 11:15:00,,0827.4,5.00,0.00,22.6,21.8,00.0,31.6,24.4,06.3,0000.0,0005.29,0002.07,0001.39
2022-02-09 11:16:00,,0827.4,5.02,0.00,22.6,21.8,00.0,31.6,24.4,07.0,0000.0,0005.68,0002.08,0001.39
2022-02-09 11:17:00,,0827.4,4.99,0.00,22.6,21.8,00.0,31.6,24.4,06.8,0000.0,0005.76,0002.10,0001.38
2022-02-09 11:18:00,,0827.3,5.00,0.00,22.6,21.8,00.0,31.6,24.3,06.7,0000.0,0005.84,0002.13,0001.37
2022-02-09 11:19:00,,0827.4,5.01,0.00,22.6,21.8,00.0,31.6,24.3,06.5,0000.0,0005.83,0002.11,0001.36
2022-02-09 11:20:00,,0827.4,5.00,0.00,22.6,21.8,00.0,31.6,24.3,06.7,0000.0,0005.82,0002.10,0001.36
2022-02-09 11:21:00,,0827.4,5.00,0.00,22.6,21.8,00.0,31.6,24.3,06.5,0000.0,0005.92,0002.12,0001.35
2022-02-09 11:22:00,,0827.4,4.98,0.00,22.6,21.8,00.0,31.6,24.3,06.3,0000.0,0006.24,0002.20,0001.35
2022-02-09 11:23:00,,0827.4,5.01,0.00,22.6,21.8,00.0,31.6,24.4,06.3,0000.0,0005.83,0002.31,0001.34
2022-02-09 11:24:00,,0827.4,5.00,0.00,22.6,21.8,00.0,31.6,24.3,06.3,0000.0,0006.06,0002.38,0001.32
2022-02-09 11:25:00,,0827.5,5.01,0.00,22.6,21.8,00.0,31.6,24.3,06.3,0000.0,0005.87,0002.36,0001.31
2022-02-09 11:26:00,,0827.5,4.99,0.00,22.6,21.8,00.0,31.6,24.3,06.3,0000.0,0005.76,0002.32,0001.28
2022-02-09 11:27:00,,0827.5,5.00,0.00,22.6,21.8,00.0,31.6,24.3,06.3,0000.0,0005.38,0002.29,0001.28
2022-02-09 11:28:00,,0827.5,5.00,0.00,22.6,21.8,00.0,31.5,24.3,06.2,0000.0,0005.28,0002.27,0001.28
2022-02-09 11:29:00,,0827.5,5.00,0.00,22.6,21.8,00.0,31.5,24.3,06.2,0000.0,0005.19,0002.23,0001.27
2022-02-09 11:30:00,,0827.5,5.00,0.00,22.6,21.8,00.0,31.5,24.3,06.1,0000.0,0005.40,0002.26,0001.27
2022-02-09 11:31:00,,0827.6,5.00,0.00,22.5,21.7,00.0,31.5,24.3,06.0,0000.0,0005.29,0002.22,0001.26
2022-02-09 11:32:00,,0827.6,5.01,0.00,22.5,21.8,00.0,31.5,24.3,06.2,0000.0,0005.99,0002.22,0001.24
2022-02-09 11:33:00,,0827.6,4.99,0.00,22.5,21.8,00.0,31.5,24.3,06.2,0000.0,0006.31,0002.18,0001.24
2022-02-09 11:34:00,,0827.5,5.01,0.00,22.5,21.8,00.0,31.5,24.3,06.1,0000.0,0005.28,0001.99,0001.22
2022-02-09 11:35:00,,0827.5,5.01,0.00,22.5,21.8,00.0,31.5,24.3,06.1,0000.0,0004.74,0001.92,0001.21
2022-02-09 11:36:00,,0827.5,4.99,0.00,22.5,21.8,00.0,31.5,24.3,06.0,0000.0,0004.82,0001.90,0001.22
2022-02-09 11:37:00,,0827.5,5.02,0.00,22.5,21.8,00.0,31.5,24.3,06.2,0000.0,0005.49,0001.94,0001.21
2022-02-09 11:38:00,,0827.6,4.99,0.00,22.5,21.7,00.0,31.5,24.3,06.1,0000.0,0006.54,0001.99,0001.21
2022-02-09 11:39:00,,0827.6,4.99,0.00,22.5,21.8,00.0,31.5,24.3,06.0,0000.0,0006.78,0001.96,0001.19
2022-02-09 11:40:00,,0827.6,5.01,0.00,22.5,21.7,00.0,31.5,24.3,05.9,0000.0,0006.86,0001.91,0001.17
2022-02-09 11:41:00,,0827.6,4.99,0.00,22.5,21.7,00.0,31.5,24.3,06.0,0000.0,0006.70,0001.86,0001.15
2022-02-09 11:42:00,,0827.6,5.01,0.00,22.5,21.7,00.0,31.5,24.3,05.9,0000.0,0006.46,0001.78,0001.11
2022-02-09 11:43:00,,0827.7,5.00,0.00,22.5,21.7,00.0,31.5,24.3,05.9,0000.0,0005.74,0001.73,0001.10
2022-02-09 11:44:00,,0827.6,4.99,0.00,22.5,21.7,00.0,31.5,24.3,05.9,0000.0,0005.09,0001.69,0001.08
2022-02-09 11:45:00,,0827.6,5.02,0.00,22.5,21.7,00.0,31.5,24.3,05.8,0000.0,0005.02,0001.61,0001.04
2022-02-09 11:46:00,,0827.7,4.99,0.00,22.5,21.7,00.0,31.5,24.3,05.9,0000.0,0004.91,0001.56,0001.02
2022-02-09 11:47:00,,0827.6,4.99,0.00,22.5,21.8,00.0,31.5,24.3,06.1,0000.0,0004.68,0001.51,0000.99
2022-02-09 11:48:00,,0827.6,5.00,0.00,22.5,21.8,00.0,31.5,24.3,06.0,0000.0,0003.84,0001.42,0000.95
2022-02-09 11:49:00,,0827.7,4.98,0.00,22.5,21.8,00.0,31.5,24.3,06.1,0000.0,0002.71,0001.35,0000.92
2022-02-09 11:50:00,,0827.7,5.01,0.00,22.5,21.8,00.0,31.5,24.3,06.4,0000.0,0002.58,0001.39,0000.92
2022-02-09 11:51:00,,0827.6,4.98,0.00,22.5,21.7,00.0,31.5,24.3,06.3,0000.0,0002.55,0001.42,0000.92
2022-02-09 11:52:00,,0827.6,5.01,0.00,22.5,21.8,00.0,31.5,24.3,06.1,0000.0,0002.52,0001.41,0000.92
2022-02-09 11:53:00,,0827.7,4.99,0.00,22.5,21.8,00.0,31.5,24.3,06.2,0000.0,0002.68,0001.46,0000.93
2022-02-09 11:54:00,,0827.7,5.00,0.00,22.5,21.8,00.0,31.5,24.3,06.2,0000.0,0003.83,0001.44,0000.92
2022-02-09 11:55:00,,0827.7,5.01,0.00,22.5,21.8,00.0,31.5,24.3,06.2,0000.0,0003.73,0001.41,0000.92
2022-02-09 11:56:00,,0827.7,4.99,0.00,22.5,21.8,00.0,31.5,24.3,06.2,0000.0,0003.67,0001.42,0000.92
2022-02-09 11:57:00,,0827.7,5.01,0.00,22.5,21.8,00.0,31.5,24.3,06.1,0000.0,0004.49,0001.42,0000.93
2022-02-09 11:58:00,,0827.7,4.99,0.00,22.5,21.8,00.0,31.5,24.3,06.2,0000.0,0004.81,0001.42,0000.94
2022-02-09 11:59:00,,0827.7,5.01,0.00,22.5,21.8,00.0,31.5,24.3,06.1,0000.0,0004.84,0001.41,0000.96
